Starlink 2731

operational
NORAD ID: 48651 Int'l Des: 2021-044 Owner: SPXS Country: US Constellation: starlink
LEOCIRCULARSTARLINK_TYPE

About Starlink 2731

Description loading...

Live Position

Loading 3D Globe...

Upcoming Passes

Altitude History

Altitude vs Time

uPlot chart will show altitude changes over time

Two-Line Element Set

1 48651U 21044P 25352.61106056 -.00000809 00000-0 -35431-4 0 9996
2 48651 53.0557 125.5941 0001313 90.1975 269.9164 15.06395265251486
Epoch: Dec 18, 2025 • Age: 16 hours

Current Status

Altitude 565.2 km
Velocity 7.58 km/s
Sub-Earth Point -49.73°S, 121.44°W
Launch Date May 26, 2021
Age 4.5 years
Type internet

Technical Details

Classification Payload
Mass 260.00 kg
Dry Mass 248.00 kg
Total Mass 260.00 kg
Length 0.20 m
Diameter 2.80 m
Span 9.00 m
Shape Box + pan
Manufacturer SPXS
Bus Type Starlink
Phase Status In Orbit
Owner/State SPXS/US

Large Constellations

Loading constellations...